Orbital Elements
Epoch 2017 Sept. 4.0 TT = JDT 2458000.5
T 2017 Aug. 18.42949 TT MPCW
q 1.8607490 (2000.0) P Q
n 0.13816263 Peri. 354.15596 +0.99767036 +0.06633941
a 3.7057461 Node 2.23402 -0.03312201 +0.67485447
e 0.4978747 Incl. 24.07889 -0.05963883 +0.73496295
P 7.13
From 127 observations 2010 Aug. 6-2017 Dec. 14, mean residual 0".5.
|